Time,TemperatureF,DewpointF,PressureIn,WindDirection,WindDirectionDegrees,WindSpeedMPH,WindSpeedGustMPH,Humidity,HourlyPrecipIn,Conditions,Clouds,dailyrainin,SoftwareType,DateUTC
2013-05-30 00:03:00,74.0,63.0,29.95,South,170,0.0,3.0,69,0.00,,,0.17,,2013-05-30 04:03:00,
2013-05-30 00:13:00,74.0,63.0,29.95,South,170,0.0,3.0,69,0.00,,,0.17,,2013-05-30 04:13:00,
2013-05-30 00:23:00,74.0,63.0,29.95,SE,138,0.0,6.0,68,0.00,,,0.17,,2013-05-30 04:23:00,
2013-05-30 00:33:00,73.0,62.0,29.95,SE,140,0.0,3.0,68,0.00,,,0.17,,2013-05-30 04:33:00,
2013-05-30 00:42:00,73.0,62.0,29.95,SE,140,0.0,3.0,68,0.00,,,0.17,,2013-05-30 04:42:00,
2013-05-30 00:53:00,73.0,61.0,29.95,SSE,150,0.0,4.0,66,0.00,,,0.17,,2013-05-30 04:53:00,
2013-05-30 01:02:00,74.0,61.0,29.96,South,179,1.0,6.0,65,0.00,,,0.17,,2013-05-30 05:02:00,
2013-05-30 01:12:00,74.0,61.0,29.96,South,179,1.0,6.0,65,0.00,,,0.17,,2013-05-30 05:12:00,
2013-05-30 01:22:00,74.0,62.0,29.96,WSW,247,1.0,4.0,66,0.00,,,0.17,,2013-05-30 05:22:00,
2013-05-30 01:32:00,73.0,61.0,29.96,SSW,193,1.0,4.0,66,0.00,,,0.17,,2013-05-30 05:32:00,
2013-05-30 01:42:00,73.0,61.0,29.96,SSW,193,1.0,4.0,66,0.00,,,0.17,,2013-05-30 05:42:00,
2013-05-30 01:52:00,73.0,61.0,29.96,South,178,1.0,6.0,67,0.00,,,0.17,,2013-05-30 05:52:00,
2013-05-30 02:01:00,73.0,62.0,29.97,SSW,192,3.0,8.0,69,0.00,,,0.16,,2013-05-30 06:01:00,
2013-05-30 02:12:00,73.0,62.0,29.97,SSW,192,3.0,8.0,69,0.00,,,0.16,,2013-05-30 06:12:00,
2013-05-30 02:22:00,73.0,62.0,29.97,SSW,192,3.0,8.0,69,0.00,,,0.16,,2013-05-30 06:22:00,
2013-05-30 02:32:00,72.0,62.0,29.97,SSW,192,1.0,6.0,71,0.00,,,0.16,,2013-05-30 06:32:00,
2013-05-30 02:42:00,72.0,62.0,29.97,SSW,192,1.0,6.0,71,0.00,,,0.16,,2013-05-30 06:42:00,
2013-05-30 02:52:00,71.0,62.0,29.97,South,184,1.0,5.0,72,0.00,,,0.16,,2013-05-30 06:52:00,
2013-05-30 03:01:00,71.0,62.0,29.97,South,186,1.0,6.0,74,0.00,,,0.16,,2013-05-30 07:01:00,
2013-05-30 03:12:00,71.0,62.0,29.97,South,186,1.0,6.0,74,0.00,,,0.16,,2013-05-30 07:12:00,
2013-05-30 03:22:00,71.0,63.0,29.97,SSW,192,1.0,7.0,75,0.00,,,0.15,,2013-05-30 07:22:00,
2013-05-30 03:32:00,71.0,63.0,29.97,SSW,193,1.0,8.0,75,0.00,,,0.15,,2013-05-30 07:32:00,
2013-05-30 03:42:00,71.0,63.0,29.97,SSW,193,1.0,8.0,75,0.00,,,0.15,,2013-05-30 07:42:00,
2013-05-30 03:52:00,71.0,63.0,29.98,SSW,200,1.0,7.0,76,0.00,,,0.15,,2013-05-30 07:52:00,
2013-05-30 04:02:00,71.0,63.0,29.98,SSW,193,0.0,5.0,77,0.00,,,0.15,,2013-05-30 08:02:00,
2013-05-30 04:11:00,71.0,63.0,29.98,SSW,193,0.0,5.0,77,0.00,,,0.15,,2013-05-30 08:11:00,
2013-05-30 04:22:00,71.0,63.0,29.97,SSE,163,1.0,5.0,77,0.00,,,0.15,,2013-05-30 08:22:00,
2013-05-30 04:32:00,71.0,64.0,29.97,SSW,194,1.0,6.0,78,0.00,,,0.15,,2013-05-30 08:32:00,
2013-05-30 04:42:00,71.0,64.0,29.97,SSW,194,1.0,6.0,78,0.00,,,0.15,,2013-05-30 08:42:00,
2013-05-30 04:52:00,71.0,64.0,29.97,SE,138,0.0,4.0,79,0.00,,,0.15,,2013-05-30 08:52:00,
2013-05-30 05:01:00,71.0,64.0,29.97,SSW,200,0.0,5.0,79,0.00,,,0.15,,2013-05-30 09:01:00,
2013-05-30 05:11:00,71.0,64.0,29.97,SSW,200,0.0,5.0,79,0.00,,,0.15,,2013-05-30 09:11:00,
2013-05-30 05:22:00,71.0,64.0,29.98,SSW,194,1.0,7.0,79,0.00,,,0.14,,2013-05-30 09:22:00,
2013-05-30 05:33:00,71.0,65.0,29.98,South,188,0.0,6.0,80,0.00,,,0.14,,2013-05-30 09:33:00,
2013-05-30 05:43:00,71.0,65.0,29.98,South,188,0.0,6.0,80,0.00,,,0.14,,2013-05-30 09:43:00,
2013-05-30 05:53:00,70.0,64.0,29.98,SSW,203,1.0,6.0,81,0.00,,,0.14,,2013-05-30 09:53:00,
2013-05-30 06:03:00,70.0,64.0,29.98,WSW,244,1.0,6.0,82,0.00,,,0.14,,2013-05-30 10:03:00,
2013-05-30 06:13:00,70.0,64.0,29.98,WSW,244,1.0,6.0,82,0.00,,,0.14,,2013-05-30 10:13:00,
2013-05-30 06:23:00,70.0,64.0,29.98,South,180,2.0,8.0,82,0.00,,,0.14,,2013-05-30 10:23:00,
2013-05-30 06:33:00,70.0,64.0,29.99,South,187,0.0,5.0,82,0.00,,,0.14,,2013-05-30 10:33:00,
2013-05-30 06:42:00,70.0,64.0,29.99,South,187,0.0,5.0,82,0.00,,,0.14,,2013-05-30 10:42:00,
2013-05-30 06:52:00,70.0,64.0,29.99,SSW,209,2.0,7.0,82,0.00,,,0.14,,2013-05-30 10:52:00,
2013-05-30 07:03:00,70.0,64.0,30.00,SW,223,2.0,7.0,82,0.00,,,0.14,,2013-05-30 11:03:00,
2013-05-30 07:12:00,70.0,64.0,30.00,SW,223,2.0,7.0,82,0.00,,,0.14,,2013-05-30 11:12:00,
2013-05-30 07:22:00,70.0,65.0,30.01,South,179,4.0,7.0,83,0.00,,,0.13,,2013-05-30 11:22:00,
2013-05-30 07:32:00,70.0,65.0,30.01,SSW,194,3.0,7.0,83,0.00,,,0.13,,2013-05-30 11:32:00,
2013-05-30 07:42:00,70.0,65.0,30.01,SSW,194,3.0,7.0,83,0.00,,,0.13,,2013-05-30 11:42:00,
2013-05-30 07:52:00,71.0,65.0,30.01,SW,216,3.0,9.0,82,0.00,,,0.13,,2013-05-30 11:52:00,
2013-05-30 08:02:00,71.0,65.0,30.01,SSW,210,4.0,10.0,82,0.00,,,0.13,,2013-05-30 12:02:00,
2013-05-30 08:11:00,71.0,65.0,30.01,SSW,210,4.0,10.0,82,0.00,,,0.13,,2013-05-30 12:11:00,
2013-05-30 08:22:00,72.0,66.0,30.01,SSW,198,3.0,10.0,81,0.00,,,0.12,,2013-05-30 12:22:00,
2013-05-30 08:32:00,73.0,66.0,30.01,SSW,209,4.0,7.0,79,0.00,,,0.12,,2013-05-30 12:32:00,
2013-05-30 08:42:00,73.0,66.0,30.01,SSW,209,4.0,7.0,79,0.00,,,0.12,,2013-05-30 12:42:00,
2013-05-30 08:52:00,74.0,67.0,30.01,South,172,3.0,12.0,78,0.00,,,0.12,,2013-05-30 12:52:00,
2013-05-30 09:01:00,75.0,67.0,30.01,South,190,2.0,10.0,77,0.00,,,0.12,,2013-05-30 13:01:00,
2013-05-30 09:11:00,75.0,67.0,30.01,South,190,2.0,10.0,77,0.00,,,0.12,,2013-05-30 13:11:00,
2013-05-30 09:22:00,76.0,67.0,30.02,SSE,162,4.0,11.0,74,0.00,,,0.11,,2013-05-30 13:22:00,
2013-05-30 09:32:00,77.0,67.0,30.01,South,188,5.0,9.0,72,0.00,,,0.11,,2013-05-30 13:32:00,
2013-05-30 09:42:00,77.0,67.0,30.01,South,188,5.0,9.0,72,0.00,,,0.11,,2013-05-30 13:42:00,
2013-05-30 09:52:00,78.0,67.0,30.01,WSW,248,6.0,11.0,69,0.00,,,0.11,,2013-05-30 13:52:00,
2013-05-30 10:02:00,80.0,68.0,30.01,SW,227,4.0,18.0,66,0.00,,,0.11,,2013-05-30 14:02:00,
2013-05-30 10:12:00,80.0,68.0,30.01,SW,227,4.0,18.0,66,0.00,,,0.11,,2013-05-30 14:12:00,
2013-05-30 10:22:00,80.0,68.0,30.01,SW,219,3.0,13.0,66,0.00,,,0.11,,2013-05-30 14:22:00,
2013-05-30 10:32:00,79.0,67.0,30.01,SSW,209,5.0,11.0,67,0.00,,,0.11,,2013-05-30 14:32:00,
2013-05-30 10:42:00,79.0,67.0,30.01,SSW,209,5.0,11.0,67,0.00,,,0.11,,2013-05-30 14:42:00,
2013-05-30 10:52:00,80.0,68.0,30.01,SW,232,6.0,12.0,67,0.00,,,0.11,,2013-05-30 14:52:00,
2013-05-30 11:01:00,79.0,67.0,30.00,SSW,199,4.0,10.0,67,0.00,,,0.10,,2013-05-30 15:01:00,
2013-05-30 11:11:00,79.0,67.0,30.00,SSW,199,4.0,10.0,67,0.00,,,0.10,,2013-05-30 15:11:00,
2013-05-30 11:22:00,80.0,68.0,30.00,SW,227,6.0,12.0,66,0.00,,,0.10,,2013-05-30 15:22:00,
2013-05-30 11:33:00,80.0,68.0,30.00,SSW,207,5.0,11.0,66,0.00,,,0.10,,2013-05-30 15:33:00,
2013-05-30 11:42:00,80.0,68.0,30.00,SSW,207,5.0,11.0,66,0.00,,,0.10,,2013-05-30 15:42:00,
2013-05-30 11:52:00,81.0,68.0,30.00,South,188,6.0,13.0,64,0.00,,,0.10,,2013-05-30 15:52:00,
2013-05-30 12:03:00,82.0,68.0,29.99,SSE,167,5.0,14.0,62,0.00,,,0.09,,2013-05-30 16:03:00,
2013-05-30 12:12:00,82.0,68.0,29.99,SSE,167,5.0,14.0,62,0.00,,,0.09,,2013-05-30 16:12:00,
2013-05-30 12:23:00,83.0,69.0,29.99,SSW,207,5.0,11.0,62,0.01,,,0.10,,2013-05-30 16:23:00,
2013-05-30 12:33:00,84.0,70.0,29.99,West,281,5.0,11.0,62,0.01,,,0.10,,2013-05-30 16:33:00,
2013-05-30 12:42:00,84.0,70.0,29.99,West,281,5.0,11.0,62,0.01,,,0.10,,2013-05-30 16:42:00,
2013-05-30 12:52:00,84.0,69.0,29.99,SW,219,6.0,13.0,60,0.01,,,0.10,,2013-05-30 16:52:00,
2013-05-30 13:02:00,85.0,69.0,29.99,SW,220,5.0,13.0,59,0.01,,,0.09,,2013-05-30 17:02:00,
2013-05-30 13:12:00,85.0,69.0,29.99,SW,220,5.0,13.0,59,0.01,,,0.09,,2013-05-30 17:12:00,
2013-05-30 13:22:00,85.0,68.0,29.98,WSW,237,6.0,11.0,57,0.00,,,0.09,,2013-05-30 17:22:00,
2013-05-30 13:32:00,86.0,68.0,29.98,SSW,213,5.0,12.0,56,0.00,,,0.09,,2013-05-30 17:32:00,
2013-05-30 13:42:00,86.0,68.0,29.98,SSW,213,5.0,12.0,56,0.00,,,0.09,,2013-05-30 17:42:00,
2013-05-30 13:52:00,87.0,68.0,29.97,West,265,5.0,14.0,54,0.00,,,0.09,,2013-05-30 17:52:00,
2013-05-30 14:02:00,86.0,67.0,29.97,SW,220,5.0,12.0,54,0.00,,,0.08,,2013-05-30 18:02:00,
2013-05-30 14:11:00,86.0,67.0,29.97,SW,220,5.0,12.0,54,0.00,,,0.08,,2013-05-30 18:11:00,
2013-05-30 14:22:00,86.0,68.0,29.97,South,182,6.0,12.0,55,0.00,,,0.08,,2013-05-30 18:22:00,
2013-05-30 14:32:00,86.0,68.0,29.96,South,182,5.0,11.0,55,0.00,,,0.08,,2013-05-30 18:32:00,
2013-05-30 14:43:00,86.0,68.0,29.96,South,182,5.0,11.0,55,0.00,,,0.08,,2013-05-30 18:43:00,
2013-05-30 14:52:00,87.0,68.0,29.96,WSW,240,6.0,13.0,54,0.00,,,0.08,,2013-05-30 18:52:00,
2013-05-30 15:02:00,87.0,68.0,29.96,SSW,200,4.0,12.0,54,0.00,,,0.06,,2013-05-30 19:02:00,
2013-05-30 15:12:00,87.0,68.0,29.96,SSW,200,4.0,12.0,54,0.00,,,0.06,,2013-05-30 19:12:00,
2013-05-30 15:23:00,87.0,68.0,29.95,West,273,5.0,15.0,54,0.00,,,0.06,,2013-05-30 19:23:00,
2013-05-30 15:32:00,87.0,67.0,29.95,SW,227,4.0,12.0,52,0.00,,,0.06,,2013-05-30 19:32:00,
2013-05-30 15:42:00,87.0,67.0,29.95,SW,227,4.0,12.0,52,0.00,,,0.06,,2013-05-30 19:42:00,
2013-05-30 15:52:00,87.0,68.0,29.94,SSW,192,2.0,10.0,54,0.00,,,0.06,,2013-05-30 19:52:00,
2013-05-30 16:02:00,87.0,67.0,29.93,SW,217,4.0,12.0,51,0.00,,,0.04,,2013-05-30 20:02:00,
2013-05-30 16:11:00,87.0,67.0,29.93,SW,217,4.0,12.0,51,0.00,,,0.04,,2013-05-30 20:11:00,
2013-05-30 16:23:00,88.0,68.0,29.93,SSW,209,3.0,10.0,52,0.00,,,0.04,,2013-05-30 20:23:00,
2013-05-30 16:33:00,87.0,67.0,29.93,SW,232,4.0,12.0,51,0.00,,,0.04,,2013-05-30 20:33:00,
2013-05-30 16:42:00,87.0,67.0,29.93,SW,232,4.0,12.0,51,0.00,,,0.04,,2013-05-30 20:42:00,
2013-05-30 16:52:00,86.0,68.0,29.93,WNW,284,4.0,10.0,56,0.00,,,0.04,,2013-05-30 20:52:00,
2013-05-30 17:01:00,80.0,69.0,29.93,South,186,1.0,12.0,69,0.00,,,0.02,,2013-05-30 21:01:00,
2013-05-30 17:11:00,80.0,69.0,29.93,South,186,1.0,12.0,69,0.00,,,0.02,,2013-05-30 21:11:00,
2013-05-30 17:22:00,79.0,70.0,29.92,SSW,196,0.0,3.0,74,0.00,,,0.02,,2013-05-30 21:22:00,
2013-05-30 17:33:00,81.0,72.0,29.91,SSW,198,1.0,4.0,73,0.00,,,0.02,,2013-05-30 21:33:00,
2013-05-30 17:43:00,81.0,72.0,29.91,SSW,198,1.0,4.0,73,0.00,,,0.02,,2013-05-30 21:43:00,
2013-05-30 17:53:00,84.0,69.0,29.91,SSW,194,3.0,11.0,60,0.00,,,0.02,,2013-05-30 21:53:00,
2013-05-30 18:02:00,85.0,70.0,29.90,SSW,208,3.0,9.0,61,0.00,,,0.02,,2013-05-30 22:02:00,
2013-05-30 18:12:00,85.0,70.0,29.90,SSW,208,3.0,9.0,61,0.00,,,0.02,,2013-05-30 22:12:00,
2013-05-30 18:23:00,84.0,68.0,29.89,SSW,202,3.0,10.0,59,0.00,,,0.02,,2013-05-30 22:23:00,
2013-05-30 18:33:00,84.0,70.0,29.89,SW,236,2.0,6.0,62,0.00,,,0.02,,2013-05-30 22:33:00,
2013-05-30 18:42:00,84.0,70.0,29.89,SW,236,2.0,6.0,62,0.00,,,0.02,,2013-05-30 22:42:00,
2013-05-30 18:52:00,83.0,69.0,29.88,SW,222,3.0,6.0,63,0.00,,,0.02,,2013-05-30 22:52:00,
2013-05-30 19:02:00,83.0,69.0,29.89,WSW,242,2.0,7.0,62,0.00,,,0.02,,2013-05-30 23:02:00,
2013-05-30 19:11:00,83.0,69.0,29.89,WSW,242,2.0,7.0,62,0.00,,,0.02,,2013-05-30 23:11:00,
2013-05-30 19:22:00,84.0,70.0,29.89,West,265,2.0,8.0,62,0.00,,,0.02,,2013-05-30 23:22:00,
2013-05-30 19:32:00,84.0,68.0,29.90,SSW,196,2.0,7.0,59,0.00,,,0.02,,2013-05-30 23:32:00,
2013-05-30 19:42:00,84.0,68.0,29.90,SSW,196,2.0,7.0,59,0.00,,,0.02,,2013-05-30 23:42:00,
2013-05-30 19:52:00,84.0,68.0,29.89,SE,146,2.0,8.0,59,0.00,,,0.02,,2013-05-30 23:52:00,
2013-05-30 20:01:00,83.0,66.0,29.89,South,186,3.0,10.0,57,0.00,,,0.02,,2013-05-31 00:01:00,
2013-05-30 20:11:00,83.0,66.0,29.89,South,186,3.0,10.0,57,0.00,,,0.02,,2013-05-31 00:11:00,
2013-05-30 20:22:00,82.0,67.0,29.90,WSW,244,4.0,10.0,60,0.00,,,0.02,,2013-05-31 00:22:00,
2013-05-30 20:32:00,81.0,67.0,29.91,SW,234,3.0,8.0,63,0.00,,,0.02,,2013-05-31 00:32:00,
2013-05-30 20:42:00,81.0,67.0,29.91,SW,234,3.0,8.0,63,0.00,,,0.02,,2013-05-31 00:42:00,
2013-05-30 20:52:00,76.0,67.0,29.93,West,275,4.0,17.0,73,0.00,,,0.02,,2013-05-31 00:52:00,
2013-05-30 21:01:00,73.0,67.0,29.91,WSW,243,0.0,5.0,82,0.00,,,0.02,,2013-05-31 01:01:00,
2013-05-30 21:12:00,73.0,67.0,29.91,WSW,243,0.0,5.0,82,0.00,,,0.02,,2013-05-31 01:12:00,
2013-05-30 21:21:00,73.0,68.0,29.91,WSW,243,0.0,1.0,84,0.01,,,0.03,,2013-05-31 01:21:00,
2013-05-30 21:32:00,73.0,67.0,29.91,SSW,192,0.0,3.0,82,0.01,,,0.03,,2013-05-31 01:32:00,
2013-05-30 21:42:00,73.0,68.0,29.91,SSE,162,0.0,1.0,83,0.01,,,0.03,,2013-05-31 01:42:00,
2013-05-30 21:52:00,73.0,68.0,29.91,SSE,162,0.0,1.0,83,0.01,,,0.03,,2013-05-31 01:52:00,
2013-05-30 22:02:00,72.0,67.0,29.91,SSE,162,0.0,1.0,83,0.01,,,0.02,,2013-05-31 02:02:00,
2013-05-30 22:11:00,72.0,67.0,29.91,SSE,162,0.0,1.0,83,0.01,,,0.02,,2013-05-31 02:11:00,
2013-05-30 22:22:00,72.0,67.0,29.93,SSE,162,0.0,2.0,83,0.00,,,0.02,,2013-05-31 02:22:00,
2013-05-30 22:32:00,72.0,66.0,29.93,SSE,162,0.0,2.0,82,0.00,,,0.02,,2013-05-31 02:32:00,
2013-05-30 22:42:00,72.0,66.0,29.93,SSE,162,0.0,2.0,82,0.00,,,0.02,,2013-05-31 02:42:00,
2013-05-30 22:51:00,73.0,67.0,29.93,SSE,162,0.0,1.0,82,0.00,,,0.02,,2013-05-31 02:51:00,
2013-05-30 23:01:00,73.0,67.0,29.93,SE,137,1.0,4.0,81,0.01,,,0.03,,2013-05-31 03:01:00,
2013-05-30 23:11:00,73.0,67.0,29.93,SE,137,1.0,4.0,81,0.01,,,0.03,,2013-05-31 03:11:00,
2013-05-30 23:21:00,74.0,67.0,29.93,SSE,161,0.0,4.0,80,0.01,,,0.03,,2013-05-31 03:21:00,
2013-05-30 23:33:00,75.0,68.0,29.93,SE,135,0.0,4.0,78,0.01,,,0.03,,2013-05-31 03:33:00,
2013-05-30 23:43:00,75.0,68.0,29.93,SE,135,0.0,4.0,78,0.01,,,0.03,,2013-05-31 03:43:00,
2013-05-30 23:53:00,75.0,67.0,29.94,South,176,0.0,3.0,77,0.01,,,0.03,,2013-05-31 03:53:00,